Regional Weather Roundup
Issued by NWS Nashville, TN

Home | Current Version | Previous Version | Text Only | Print | Product List | Glossary On
Versions: 1 2 3 4 5 6 7 8 9 10 11 12 13 14 15 16 17 18 19 20 21 22 23 24 25 26 27 28 29 30 31 32 33 34 35 36 37 38 39 40 41 42 43 44 45 46 47 48 49 50
000
ASUS44 KOHX 302315
RWROHX
MIDDLE TENNESSEE HOURLY WEATHER ROUNDUP
NATIONAL WEATHER SERVICE NASHVILLE TN
600 PM CDT SAT MAY 30 2015

NOTE: "FAIR" INDICATES FEW OR NO CLOUDS BELOW 12,000 FEET WITH
NO SIGNIFICANT WEATHER AND/OR OBSTRUCTIONS TO VISIBILITY.

* THESE REPORTS ARE NOT UNDER NWS QUALITY CONTROL AND MAY NOT
  REPORT WEATHER SUCH AS PRECIPITATION AND FOG.


TNZ005>011-023>034-057-059-062>066-078-080-310000
...NORTHERN MIDDLE TENNESSEE...

CITY           SKY/WX    TMP DP  RH WIND       PRES   REMARKS
CASTALIAN SPRG   N/A     81  68  65 S3        29.78F
CLARKSVILLE    PTSUNNY   69  66  90 S3        29.98F
CROSSVILLE     SUNNY     79  59  50 S8        30.08F
GLADEVILLE*      N/A     79  70  73 S3        29.94F
JOELTON*         N/A     73  66  78 SW7       29.97R
LIVINGSTON     SUNNY     84  62  47 SW7       30.04
MOUNT JULIET*    N/A     79  68  69 CALM      29.83F
NASHVILLE      MOSUNNY   81  68  64 S10       29.99F
OLD HICKORY*     N/A     79  72  78 W2        29.62S
PORTLAND       MOSUNNY   79  66  65 S10       29.98F
ROCKWOOD       MOSUNNY   79  63  57 SW12      30.08F
SMYRNA         LGT RAIN  73  68  83 SW6       30.02S
SPARTA         SUNNY     82  64  54 SW8       30.02S
$$
TNZ056-058-060-061-075>077-079-093>097-310000
...SOUTHERN MIDDLE TENNESSEE...

CITY           SKY/WX    TMP DP  RH WIND       PRES   REMARKS
COLUMBIA       MOSUNNY   77  70  78 S9        30.00F
LEWISBURG      MOSUNNY   79  66  64 S6        30.01F
MANCHESTER*      N/A     75  55  50 CALM      29.93R
MCMINNVILLE    MOSUNNY   82  63  51 S5        30.04S
MOUNT PLEASANT   N/A     73  72  94 CALM      29.93F
SHELBYVILLE    MOSUNNY   75  70  83 S7        30.04F
TULLAHOMA      MOSUNNY   72  66  83 CALM      30.06F
WINCHESTER     PTSUNNY   82  63  51 SW6       30.04F
$$


...KEY TO REMARKS...
VSB - VISIBILITY IN MILES
WCI - WIND CHILL INDEX
HX  - HEAT INDEX




USA.gov is the U.S. government's official web portal to all federal, state and local government web resources and services.